Time,TemperatureF,DewpointF,PressureIn,WindDirection,WindDirectionDegrees,WindSpeedMPH,WindSpeedGustMPH,Humidity,HourlyPrecipIn,Conditions,Clouds,dailyrainin,SoftwareType,DateUTC
2013-03-14 00:07:00,48.0,29.0,30.11,NW,317,2.0,3.0,49,0.00,,,0.00,weatherlink.com 1.10,2013-03-14 04:07:00,
2013-03-14 00:22:00,47.1,30.0,30.11,NW,323,0.0,3.0,52,0.00,,,0.00,weatherlink.com 1.10,2013-03-14 04:22:00,
2013-03-14 00:37:00,46.4,29.0,30.11,NNE,25,1.0,5.0,52,0.00,,,0.00,weatherlink.com 1.10,2013-03-14 04:37:00,
2013-03-14 00:52:00,46.3,29.0,30.12,West,263,0.0,4.0,52,0.00,,,0.00,weatherlink.com 1.10,2013-03-14 04:52:00,
2013-03-14 01:07:00,45.3,29.0,30.12,NW,321,1.0,3.0,54,0.00,,,0.00,weatherlink.com 1.10,2013-03-14 05:07:00,
2013-03-14 01:22:00,44.6,28.0,30.13,North,351,1.0,4.0,53,0.00,,,0.00,weatherlink.com 1.10,2013-03-14 05:22:00,
2013-03-14 01:37:00,44.4,28.0,30.13,WNW,300,0.0,3.0,53,0.00,,,0.00,weatherlink.com 1.10,2013-03-14 05:37:00,
2013-03-14 01:52:00,43.9,27.0,30.13,WNW,294,1.0,3.0,51,0.00,,,0.00,weatherlink.com 1.10,2013-03-14 05:52:00,
2013-03-14 02:07:00,43.7,26.0,30.14,NW,316,2.0,2.0,51,0.00,,,0.00,weatherlink.com 1.10,2013-03-14 06:07:00,
2013-03-14 02:22:00,43.0,27.0,30.14,ESE,105,0.0,4.0,54,0.00,,,0.00,weatherlink.com 1.10,2013-03-14 06:22:00,
2013-03-14 02:37:00,42.7,26.0,30.15,NNW,343,0.0,4.0,51,0.00,,,0.00,weatherlink.com 1.10,2013-03-14 06:37:00,
2013-03-14 02:52:00,41.9,26.0,30.15,West,261,0.0,2.0,54,0.00,,,0.00,weatherlink.com 1.10,2013-03-14 06:52:00,
2013-03-14 03:07:00,41.3,26.0,30.16,NW,311,1.0,6.0,55,0.00,,,0.00,weatherlink.com 1.10,2013-03-14 07:07:00,
2013-03-14 03:22:00,41.1,25.0,30.16,WNW,287,1.0,4.0,53,0.00,,,0.00,weatherlink.com 1.10,2013-03-14 07:22:00,
2013-03-14 03:37:00,40.6,25.0,30.16,WNW,294,1.0,3.0,54,0.00,,,0.00,weatherlink.com 1.10,2013-03-14 07:37:00,
2013-03-14 03:52:00,40.0,25.0,30.17,WSW,255,0.0,1.0,56,0.00,,,0.00,weatherlink.com 1.10,2013-03-14 07:52:00,
2013-03-14 04:07:00,39.6,26.0,30.17,NW,316,0.0,3.0,58,0.00,,,0.00,weatherlink.com 1.10,2013-03-14 08:07:00,
2013-03-14 04:22:00,39.1,25.0,30.18,SW,231,0.0,3.0,58,0.00,,,0.00,weatherlink.com 1.10,2013-03-14 08:22:00,
2013-03-14 04:37:00,38.6,26.0,30.18,NNE,18,0.0,3.0,60,0.00,,,0.00,weatherlink.com 1.10,2013-03-14 08:37:00,
2013-03-14 04:53:00,37.5,26.0,30.18,WSW,241,0.0,1.0,63,0.00,,,0.00,weatherlink.com 1.10,2013-03-14 08:53:00,
2013-03-14 05:08:00,36.9,26.0,30.19,SSW,200,0.0,2.0,65,0.00,,,0.00,weatherlink.com 1.10,2013-03-14 09:08:00,
2013-03-14 05:23:00,36.8,26.0,30.19,NW,312,1.0,2.0,65,0.00,,,0.00,weatherlink.com 1.10,2013-03-14 09:23:00,
2013-03-14 05:38:00,36.5,26.0,30.20,WNW,299,1.0,3.0,65,0.00,,,0.00,weatherlink.com 1.10,2013-03-14 09:38:00,
2013-03-14 05:53:00,36.1,26.0,30.20,WNW,282,0.0,3.0,66,0.00,,,0.00,weatherlink.com 1.10,2013-03-14 09:53:00,
2013-03-14 06:08:00,35.6,25.0,30.21,SW,229,0.0,3.0,65,0.00,,,0.00,weatherlink.com 1.10,2013-03-14 10:08:00,
2013-03-14 06:23:00,35.2,25.0,30.22,WSW,246,0.0,2.0,67,0.00,,,0.00,weatherlink.com 1.10,2013-03-14 10:23:00,
2013-03-14 06:38:00,34.9,25.0,30.23,WSW,243,1.0,3.0,67,0.00,,,0.00,weatherlink.com 1.10,2013-03-14 10:38:00,
2013-03-14 06:53:00,34.5,24.0,30.24,SSW,193,0.0,2.0,66,0.00,,,0.00,weatherlink.com 1.10,2013-03-14 10:53:00,
2013-03-14 07:08:00,33.9,24.0,30.25,SW,236,0.0,1.0,67,0.00,,,0.00,weatherlink.com 1.10,2013-03-14 11:08:00,
2013-03-14 07:23:00,33.1,24.0,30.26,WSW,253,1.0,1.0,70,0.00,,,0.00,weatherlink.com 1.10,2013-03-14 11:23:00,
2013-03-14 07:38:00,32.7,24.0,30.26,SSW,206,0.0,0.0,71,0.00,,,0.00,weatherlink.com 1.10,2013-03-14 11:38:00,
2013-03-14 07:53:00,32.7,24.0,30.27,SW,226,0.0,2.0,71,0.00,,,0.00,weatherlink.com 1.10,2013-03-14 11:53:00,
2013-03-14 08:08:00,34.1,24.0,30.28,WNW,285,0.0,1.0,67,0.00,,,0.00,weatherlink.com 1.10,2013-03-14 12:08:00,
2013-03-14 08:23:00,36.3,24.0,30.29,ESE,111,0.0,1.0,62,0.00,,,0.00,weatherlink.com 1.10,2013-03-14 12:23:00,
2013-03-14 08:38:00,37.2,24.0,30.30,NW,315,0.0,2.0,60,0.00,,,0.00,weatherlink.com 1.10,2013-03-14 12:38:00,
2013-03-14 08:53:00,38.6,23.0,30.30,WSW,252,1.0,6.0,54,0.00,,,0.00,weatherlink.com 1.10,2013-03-14 12:53:00,
2013-03-14 09:08:00,39.4,22.0,30.30,NNW,328,1.0,4.0,50,0.00,,,0.00,weatherlink.com 1.10,2013-03-14 13:08:00,
2013-03-14 09:23:00,40.3,22.0,30.30,North,349,1.0,6.0,48,0.00,,,0.00,weatherlink.com 1.10,2013-03-14 13:23:00,
2013-03-14 09:38:00,40.8,22.0,30.30,WSW,250,1.0,6.0,47,0.00,,,0.00,weatherlink.com 1.10,2013-03-14 13:38:00,
2013-03-14 09:53:00,41.6,22.0,30.30,North,356,4.0,9.0,46,0.00,,,0.00,weatherlink.com 1.10,2013-03-14 13:53:00,
2013-03-14 10:08:00,42.5,21.0,30.30,North,351,6.0,8.0,43,0.00,,,0.00,weatherlink.com 1.10,2013-03-14 14:08:00,
2013-03-14 10:23:00,42.2,21.0,30.30,NE,39,3.0,11.0,43,0.00,,,0.00,weatherlink.com 1.10,2013-03-14 14:23:00,
2013-03-14 10:38:00,42.9,21.0,30.30,WSW,250,0.0,8.0,41,0.00,,,0.00,weatherlink.com 1.10,2013-03-14 14:38:00,
2013-03-14 10:53:00,43.6,21.0,30.30,NNW,341,1.0,9.0,40,0.00,,,0.00,weatherlink.com 1.10,2013-03-14 14:53:00,
2013-03-14 11:08:00,44.4,21.0,30.30,NNW,333,1.0,6.0,39,0.00,,,0.00,weatherlink.com 1.10,2013-03-14 15:08:00,
2013-03-14 11:23:00,45.2,21.0,30.29,NW,307,2.0,6.0,39,0.00,,,0.00,weatherlink.com 1.10,2013-03-14 15:23:00,
2013-03-14 11:38:00,46.1,21.0,30.29,NNW,342,2.0,13.0,37,0.00,,,0.00,weatherlink.com 1.10,2013-03-14 15:38:00,
2013-03-14 11:53:00,46.0,22.0,30.29,East,88,2.0,9.0,39,0.00,,,0.00,weatherlink.com 1.10,2013-03-14 15:53:00,
2013-03-14 12:08:00,47.0,22.0,30.28,NE,44,1.0,6.0,38,0.00,,,0.00,weatherlink.com 1.10,2013-03-14 16:08:00,
2013-03-14 12:23:00,48.1,23.0,30.27,NW,317,1.0,6.0,38,0.00,,,0.00,weatherlink.com 1.10,2013-03-14 16:23:00,
2013-03-14 12:38:00,48.7,23.0,30.27,South,169,3.0,6.0,37,0.00,,,0.00,weatherlink.com 1.10,2013-03-14 16:38:00,
2013-03-14 12:54:00,49.3,23.0,30.26,NW,307,1.0,10.0,36,0.00,,,0.00,weatherlink.com 1.10,2013-03-14 16:54:00,
2013-03-14 13:09:00,49.9,22.0,30.26,NNW,330,2.0,5.0,34,0.00,,,0.00,weatherlink.com 1.10,2013-03-14 17:09:00,
2013-03-14 13:24:00,50.2,24.0,30.25,WSW,249,0.0,6.0,36,0.00,,,0.00,weatherlink.com 1.10,2013-03-14 17:24:00,
2013-03-14 13:39:00,50.3,23.0,30.25,WSW,239,2.0,6.0,35,0.00,,,0.00,weatherlink.com 1.10,2013-03-14 17:39:00,
2013-03-14 13:54:00,50.7,22.0,30.25,SW,233,3.0,7.0,33,0.00,,,0.00,weatherlink.com 1.10,2013-03-14 17:54:00,
2013-03-14 14:09:00,51.0,24.0,30.25,WSW,244,3.0,10.0,35,0.00,,,0.00,weatherlink.com 1.10,2013-03-14 18:09:00,
2013-03-14 14:24:00,51.2,23.0,30.24,WSW,242,3.0,6.0,33,0.00,,,0.00,weatherlink.com 1.10,2013-03-14 18:24:00,
2013-03-14 14:39:00,51.7,23.0,30.23,WSW,249,1.0,8.0,32,0.00,,,0.00,weatherlink.com 1.10,2013-03-14 18:39:00,
2013-03-14 14:54:00,52.3,23.0,30.23,WNW,289,2.0,4.0,32,0.00,,,0.00,weatherlink.com 1.10,2013-03-14 18:54:00,
2013-03-14 15:09:00,52.5,22.0,30.23,SW,221,3.0,10.0,31,0.00,,,0.00,weatherlink.com 1.10,2013-03-14 19:09:00,
2013-03-14 15:24:00,52.9,23.0,30.23,NE,39,4.0,7.0,31,0.00,,,0.00,weatherlink.com 1.10,2013-03-14 19:24:00,
2013-03-14 15:39:00,53.4,23.0,30.21,SW,224,4.0,5.0,30,0.00,,,0.00,weatherlink.com 1.10,2013-03-14 19:39:00,
2013-03-14 15:54:00,53.6,22.0,30.21,SW,217,2.0,7.0,29,0.00,,,0.00,weatherlink.com 1.10,2013-03-14 19:54:00,
2013-03-14 16:09:00,53.8,23.0,30.20,NW,309,1.0,8.0,30,0.00,,,0.00,weatherlink.com 1.10,2013-03-14 20:09:00,
2013-03-14 16:24:00,54.2,23.0,30.20,SSW,203,1.0,5.0,30,0.00,,,0.00,weatherlink.com 1.10,2013-03-14 20:24:00,
2013-03-14 16:39:00,53.9,23.0,30.19,SSE,163,0.0,7.0,30,0.00,,,0.00,weatherlink.com 1.10,2013-03-14 20:39:00,
2013-03-14 16:54:00,53.5,23.0,30.19,NW,312,3.0,5.0,31,0.00,,,0.00,weatherlink.com 1.10,2013-03-14 20:54:00,
2013-03-14 17:09:00,53.6,24.0,30.18,West,262,2.0,4.0,32,0.00,,,0.00,weatherlink.com 1.10,2013-03-14 21:09:00,
2013-03-14 17:24:00,54.1,23.0,30.18,ENE,75,1.0,4.0,30,0.00,,,0.00,weatherlink.com 1.10,2013-03-14 21:24:00,
2013-03-14 17:39:00,53.5,25.0,30.18,WNW,300,0.0,5.0,33,0.00,,,0.00,weatherlink.com 1.10,2013-03-14 21:39:00,
2013-03-14 17:54:00,53.5,27.0,30.18,WSW,252,0.0,5.0,36,0.00,,,0.00,weatherlink.com 1.10,2013-03-14 21:54:00,
2013-03-14 18:09:00,52.7,24.0,30.18,ESE,104,1.0,5.0,33,0.00,,,0.00,weatherlink.com 1.10,2013-03-14 22:09:00,
2013-03-14 18:24:00,52.1,24.0,30.18,NW,317,1.0,6.0,34,0.00,,,0.00,weatherlink.com 1.10,2013-03-14 22:24:00,
2013-03-14 18:39:00,51.2,24.0,30.18,NW,311,0.0,2.0,35,0.00,,,0.00,weatherlink.com 1.10,2013-03-14 22:39:00,
2013-03-14 18:54:00,50.2,25.0,30.19,NW,307,0.0,1.0,38,0.00,,,0.00,weatherlink.com 1.10,2013-03-14 22:54:00,
2013-03-14 19:09:00,48.8,29.0,30.19,WNW,284,0.0,0.0,47,0.00,,,0.00,weatherlink.com 1.10,2013-03-14 23:09:00,
2013-03-14 19:24:00,46.6,28.0,30.20,WNW,284,0.0,0.0,48,0.00,,,0.00,weatherlink.com 1.10,2013-03-14 23:24:00,
2013-03-14 19:39:00,44.4,29.0,30.21,WNW,283,0.0,0.0,54,0.00,,,0.00,weatherlink.com 1.10,2013-03-14 23:39:00,
2013-03-14 19:54:00,42.7,29.0,30.21,WNW,283,0.0,0.0,58,0.00,,,0.00,weatherlink.com 1.10,2013-03-14 23:54:00,
2013-03-14 20:09:00,41.6,30.0,30.21,WNW,284,0.0,0.0,64,0.00,,,0.00,weatherlink.com 1.10,2013-03-15 00:09:00,
2013-03-14 20:24:00,40.8,31.0,30.20,WNW,283,0.0,0.0,69,0.00,,,0.00,weatherlink.com 1.10,2013-03-15 00:24:00,
2013-03-14 20:39:00,40.1,32.0,30.20,WNW,284,0.0,0.0,73,0.00,,,0.00,weatherlink.com 1.10,2013-03-15 00:39:00,
2013-03-14 20:54:00,39.9,33.0,30.21,WSW,243,0.0,0.0,75,0.00,,,0.00,weatherlink.com 1.10,2013-03-15 00:54:00,
2013-03-14 21:09:00,39.3,32.0,30.21,WSW,243,0.0,0.0,76,0.00,,,0.00,weatherlink.com 1.10,2013-03-15 01:09:00,
2013-03-14 21:24:00,38.8,32.0,30.21,WSW,243,0.0,0.0,77,0.00,,,0.00,weatherlink.com 1.10,2013-03-15 01:24:00,
2013-03-14 21:39:00,38.5,32.0,30.21,WSW,243,0.0,0.0,77,0.00,,,0.00,weatherlink.com 1.10,2013-03-15 01:39:00,
2013-03-14 21:54:00,38.1,32.0,30.21,WSW,243,0.0,0.0,78,0.00,,,0.00,weatherlink.com 1.10,2013-03-15 01:54:00,
2013-03-14 22:09:00,37.3,31.0,30.21,WSW,243,0.0,0.0,79,0.00,,,0.00,weatherlink.com 1.10,2013-03-15 02:09:00,
2013-03-14 22:24:00,36.7,31.0,30.20,WSW,243,0.0,0.0,80,0.00,,,0.00,weatherlink.com 1.10,2013-03-15 02:24:00,
2013-03-14 22:39:00,36.2,31.0,30.20,WSW,243,0.0,0.0,81,0.00,,,0.00,weatherlink.com 1.10,2013-03-15 02:39:00,
2013-03-14 22:54:00,35.9,31.0,30.20,WSW,243,0.0,0.0,82,0.00,,,0.00,weatherlink.com 1.10,2013-03-15 02:54:00,
2013-03-14 23:09:00,35.5,31.0,30.21,WSW,243,0.0,0.0,83,0.00,,,0.00,weatherlink.com 1.10,2013-03-15 03:09:00,
2013-03-14 23:24:00,34.9,31.0,30.21,WSW,243,0.0,0.0,84,0.00,,,0.00,weatherlink.com 1.10,2013-03-15 03:24:00,
2013-03-14 23:39:00,34.6,31.0,30.22,WSW,243,0.0,0.0,85,0.00,,,0.00,weatherlink.com 1.10,2013-03-15 03:39:00,
2013-03-14 23:54:00,34.2,30.0,30.22,WSW,243,0.0,0.0,85,0.00,,,0.00,weatherlink.com 1.10,2013-03-15 03:54:00,